x

West Santa Barbara 38 Nm West Of Santa Barbara, Ca (46054) Wave Buoy

3:50am - Sun 22nd Oct 2017 All times are PDT. -7 hours from GMT.

  • Sig Wave height 9.8ft
  • Swell Direction
  • Peak Period 15s
  • Average Period 9s
  • Wind
    16mph, 20mph gusts
  • Sea Temp 56°f
  • Air Temp 59°f
  • Sea Pressure 1019.1mb
  • West Santa Barbara  38 Nm West Of Santa Barbara, Ca
  • West Santa Barbara  38 Nm West Of Santa Barbara, Ca

More Historic Weather Station data

Upgrade to MSW Pro to gain access to the past 30 days of data for over 8000 Wavebouys and Weather Stations around the globe.

Join

Comparision Forecast

View Surf forecast
   
Sun 10/22 3:50am 10ft 15s 9s 16 20 mph 1019.1mb 56f 59f
3:40am 10ft  -  9s 16 20 mph 1019.1mb 56f 59f
3:30am  -   -   -  16 20 mph 1019mb 56f 59f
3:20am  -   -   -  16 20 mph 1019.1mb 56f 59f
3:10am  -   -   -  16 18 mph 1019.2mb 56f 59f
3:00am  -   -   -  16 20 mph 1019.3mb 56f 59f
2:50am 10.5ft 14s 9s 16 22 mph 1019.3mb 56f 60f
2:40am 10.5ft  -  9s 16 22 mph 1019.3mb 56f 59f
2:30am  -   -   -  11 16 mph 1019.4mb 56f 60f
2:20am  -   -   -  13 18 mph 1019.3mb 56f 60f
2:10am  -   -   -  13 16 mph 1019.4mb 56f 60f
2:00am  -   -   -  13 18 mph 1019.4mb 56f 60f
1:50am 10ft 13s 8s 13 16 mph 1019.3mb 56f 60f
1:40am  -   -   -  11 13 mph 1019.5mb 56f 59f
1:30am  -   -   -  11 13 mph 1019.4mb 56f 59f
1:20am  -   -   -  11 16 mph 1019.5mb 56f 60f
1:10am  -   -   -  13 16 mph 1019.4mb - 60f
1:00am  -   -   -  11 16 mph 1019.5mb - 60f
12:50am 11ft 13s 8s 13 18 mph 1019.5mb 56f 60f
12:40am 11ft  -  8s 13 18 mph 1019.5mb 56f 60f
12:30am  -   -   -  16 18 mph 1019.5mb 56f 60f
12:20am  -   -   -  16 18 mph 1019.6mb - 60f
12:10am  -   -   -  16 18 mph 1019.5mb 55f 59f
12:00am  -   -   -  16 20 mph 1019.5mb 56f 59f
Sat 10/21 11:50pm 11ft 14s 8s 16 20 mph 1019.6mb 55f 59f
11:40pm  -   -   -  16 20 mph 1019.7mb 55f 59f
11:30pm  -   -   -  16 20 mph 1019.7mb 55f 59f
11:20pm  -   -   -  16 20 mph 1019.7mb 56f 59f
11:10pm  -   -   -  16 20 mph 1019.8mb 56f 59f
11:00pm  -   -   -  18 20 mph 1019.8mb 56f 59f
10:50pm 12ft 14s 8s 18 22 mph 1019.7mb 56f 59f
10:40pm  -   -   -  18 22 mph 1019.7mb 56f 59f
10:30pm  -   -   -  20 25 mph 1019.6mb 56f 59f
10:20pm  -   -   -  20 25 mph 1019.5mb 56f 59f
10:10pm  -   -   -  20 25 mph 1019.5mb 56f 59f
10:00pm  -   -   -  20 27 mph 1019.4mb 56f 58f
9:50pm 12ft 15s 8s 22 27 mph 1019.5mb 56f 58f
9:40pm 12ft  -  8s 22 27 mph 1019.5mb 56f 58f
9:30pm  -   -   -  25 29 mph - - 58f
9:20pm  -   -   -  25 31 mph 1019.5mb 56f 58f
9:10pm  -   -   -  25 29 mph 1019.5mb 56f 58f
9:00pm  -   -   -  25 31 mph 1019.3mb 56f 59f
8:50pm 12ft 15s 8s 27 31 mph 1019.1mb 56f 59f
8:40pm  -   -   -  27 34 mph 1019mb 56f 59f
8:30pm  -   -   -  27 34 mph 1018.9mb 56f 58f
8:20pm  -   -   -  27 34 mph 1019mb 56f 58f
8:10pm  -   -   -  27 34 mph 1018.8mb - 58f
8:00pm  -   -   -  27 31 mph 1018.9mb - 58f
7:50pm 12.5ft 15s 8s 27 34 mph 1019mb 56f 58f
7:40pm  -   -   -  27 31 mph 1018.9mb 56f 58f
7:30pm  -   -   -  27 34 mph 1019mb 56f 58f
7:20pm  -   -   -  27 36 mph 1018.7mb 56f 58f
7:10pm  -   -   -  29 36 mph 1018.4mb 56f 58f
7:00pm  -   -   -  29 36 mph 1018.4mb 56f 58f
6:30pm  -   -   -  29 34 mph 1018mb 56f 58f
6:20pm  -   -   -  29 36 mph 1017.9mb 56f 58f
6:10pm  -   -   -  27 36 mph 1018mb 56f 58f
6:00pm  -   -   -  27 34 mph 1018mb 56f 58f
5:50pm 13ft 16s 9s 27 34 mph 1018mb 56f 58f
5:40pm 13ft  -  9s 29 34 mph 1017.9mb 56f 58f
5:30pm  -   -   -  29 38 mph 1017.8mb 56f 58f
5:20pm  -   -   -  29 36 mph 1017.9mb 56f -
5:10pm  -   -   -  29 38 mph 1017.8mb 56f 58f
5:00pm  -   -   -  29 34 mph 1017.9mb 56f 59f
4:50pm 12ft 16s 8s 27 34 mph 1017.9mb 56f 59f
4:40pm 12ft  -  8s 27 31 mph 1017.9mb 56f 59f
4:30pm  -   -   -  27 36 mph 1017.8mb 56f 59f
4:20pm  -   -   -  27 34 mph 1017.7mb 56f 59f
4:10pm  -   -   -  27 34 mph 1017.8mb 56f 59f
4:00pm  -   -   -  27 31 mph 1017.8mb 56f 59f
3:50pm 11ft 15s 8s 27 34 mph 1017.7mb 56f 59f
3:40pm  -   -   -  27 36 mph 1017.6mb 56f 59f
3:30pm  -   -   -  27 36 mph 1017.8mb 56f 59f
3:20pm  -   -   -  27 34 mph 1017.8mb 56f 59f
3:10pm  -   -   -  25 31 mph 1017.7mb 56f 59f
3:00pm  -   -   -  27 31 mph 1017.8mb - 59f
2:50pm 10.5ft 14s 8s 27 34 mph 1017.8mb 56f 59f
2:40pm 10.5ft  -  8s 27 31 mph 1017.8mb 56f 59f
2:30pm  -   -   -  27 34 mph 1017.8mb 56f 59f
2:20pm  -   -   -  27 31 mph 1018.2mb 56f 59f
2:10pm  -   -   -  27 34 mph 1018.3mb 57f 59f
2:00pm  -   -   -  27 31 mph 1018.5mb 57f 58f
1:50pm 11.5ft 16s 8s 27 31 mph 1018.2mb 57f 58f
1:40pm 11.5ft  -  8s 27 34 mph 1018.4mb 57f 58f
1:30pm  -   -   -  27 36 mph 1018.2mb 57f 58f
1:20pm  -   -   -  27 34 mph 1018.4mb 57f 58f
1:10pm  -   -   -  25 31 mph 1018.8mb 57f 58f
1:00pm  -   -   -  27 34 mph 1018.7mb 57f 58f
12:50pm 12ft 15s 8s 27 31 mph 1018.9mb 57f 58f
12:40pm  -   -   -  25 31 mph 1019mb 57f 58f
12:30pm  -   -   -  27 31 mph 1018.9mb 57f 58f
12:20pm  -   -   -  27 31 mph 1019mb 57f 58f
12:10pm  -   -   -  27 36 mph 1018.8mb 57f 58f
12:00pm  -   -   -  27 34 mph 1018.8mb 57f 58f
11:50am 12ft 16s 8s 27 34 mph 1018.9mb 57f 58f
11:40am  -   -   -  27 34 mph 1019.1mb 57f 58f
11:30am  -   -   -  27 36 mph 1019mb 57f 58f
11:20am  -   -   -  27 34 mph 1019mb 57f 58f
11:10am  -   -   -  27 34 mph 1018.9mb 57f 58f
11:00am  -   -   -  27 36 mph 1019mb 57f 58f
10:50am 12.5ft 16s 8s 27 34 mph 1019.3mb 57f 58f
10:40am 12.5ft  -  8s 29 36 mph 1019.1mb 57f 58f
10:30am  -   -   -  29 36 mph 1018.9mb 57f 58f
10:20am  -   -   -  29 38 mph 1018.9mb 57f 58f
10:10am  -   -   -  27 36 mph 1019.1mb 57f 58f
10:00am  -   -   -  29 36 mph 1019mb 57f 58f
9:50am 12ft 16s 8s 29 36 mph 1018.8mb 57f 57f
9:40am  -   -   -  29 40 mph 1018.5mb 57f 57f
9:30am  -   -   -  29 36 mph 1018.3mb 57f 57f
9:20am  -   -   -  29 36 mph 1018.3mb 57f 57f
9:10am  -   -   -  29 36 mph 1018.5mb 57f 57f
9:00am  -   -   -  29 38 mph 1018.3mb 57f 57f
8:50am 13ft 16s 9s 29 36 mph 1018.1mb 57f 57f
8:40am 13ft  -  9s 29 38 mph 1018mb 57f 57f
8:30am  -   -   -  31 38 mph 1017.9mb 57f 57f
8:20am  -   -   -  31 38 mph 1017.6mb 57f 57f
8:10am  -   -   -  29 38 mph 1017.6mb 57f 57f
8:00am  -   -   -  31 38 mph 1017.4mb - 57f
7:50am 13ft 16s 9s 31 40 mph 1017.3mb 57f 57f
7:40am 13ft  -  9s 31 38 mph 1017.3mb 57f 57f
7:30am  -   -   -  29 36 mph 1017.3mb 57f 57f
7:20am  -   -   -  29 36 mph 1017.3mb 57f 57f
7:10am  -   -   -  29 36 mph 1017.4mb 57f 57f
7:00am  -   -   -  27 34 mph 1017.6mb 57f 57f
6:50am 12.5ft 16s 9s 27 34 mph 1017.7mb 57f 57f
6:40am 12.5ft  -  9s 27 34 mph 1017.7mb 57f 58f
6:30am  -   -   -  27 34 mph 1017.8mb 57f 58f
6:20am  -   -   -  25 31 mph 1018mb 57f 58f
6:10am  -   -   -  27 34 mph 1017.9mb - 58f
6:00am  -   -   -  25 31 mph 1017.9mb - 58f
5:50am 14ft  -  10s 25 34 mph 1017.9mb 57f -
5:40am 14ft  -  10s 25 31 mph 1017.8mb 57f 57f
5:30am  -   -   -  27 34 mph 1017.5mb 57f 57f
5:20am  -   -   -  27 34 mph 1017.3mb 57f 58f
5:10am  -   -   -  27 36 mph 1017.1mb 57f 58f
5:00am  -   -   -  27 36 mph 1016.9mb 57f 58f
4:50am 14.5ft 16s 10s 27 31 mph 1017mb 57f 58f
4:40am  -   -   -  27 34 mph 1017.1mb 57f 57f
4:30am  -   -   -  27 34 mph 1017mb 57f 57f
4:20am  -   -   -  27 34 mph 1017.2mb 57f 57f
4:10am  -   -   -  25 31 mph 1017.2mb 57f 57f
4:00am  -   -   -  25 34 mph 1017.2mb 56f 57f
3:50am 14ft 15s 9s 25 31 mph 1017.3mb 56f 57f
3:40am 14ft  -  9s 25 31 mph 1017.4mb 56f 57f
3:30am  -   -   -  25 31 mph 1017.4mb 56f 57f
3:20am  -   -   -  25 29 mph 1017.6mb 56f 57f
3:10am  -   -   -  25 29 mph 1017.6mb 56f 57f
3:00am  -   -   -  22 29 mph 1017.7mb 56f 57f
2:50am 14ft 15s 10s 25 29 mph 1017.7mb 56f 57f
2:40am 14ft  -  10s 25 29 mph 1017.7mb 56f 57f
2:30am  -   -   -  22 29 mph 1017.8mb 56f 57f
2:20am  -   -   -  22 29 mph 1017.9mb 56f 57f
2:10am  -   -   -  25 31 mph 1017.9mb 56f 57f
2:00am  -   -   -  25 29 mph 1018mb 56f 57f
1:50am 15.5ft 17s 10s 25 29 mph 1017.8mb 56f 57f
1:40am 15.5ft  -  10s 25 29 mph 1017.9mb - 57f
1:30am  -   -   -  25 34 mph 1017.7mb 56f 57f
1:20am  -   -   -  25 31 mph 1017.7mb 56f 57f
1:10am  -   -   -  25 31 mph 1017.8mb 56f 57f
1:00am  -   -   -  25 34 mph 1017.6mb 56f 57f
12:50am 15.5ft 17s 9s 25 31 mph 1017.6mb 56f 57f
12:40am  -   -   -  27 34 mph 1017.6mb 56f 57f
12:30am  -   -   -  27 31 mph 1017.6mb 56f 57f
12:20am  -   -   -  25 34 mph 1017.6mb 56f 57f
12:10am  -   -   -  25 31 mph 1017.5mb 56f 58f
12:00am  -   -   -  27 34 mph 1017.4mb 56f 58f
Fri 10/20 11:50pm 15ft 17s 9s 25 31 mph 1017.3mb 56f 58f
11:40pm 15ft  -  9s 25 31 mph 1017.3mb 56f 58f
11:30pm  -   -   -  25 31 mph 1017.4mb 56f 58f
11:20pm  -   -   -  25 31 mph 1017.4mb 57f 58f
11:10pm  -   -   -  25 31 mph 1017.3mb 57f 58f
11:00pm  -   -   -  27 36 mph 1017.3mb 57f 58f
10:50pm 15ft 16s 9s 27 36 mph 1017.2mb 57f 58f
10:40pm  -   -   -  27 36 mph 1017.3mb 57f 58f
10:30pm  -   -   -  27 34 mph 1017.3mb 57f 58f
10:20pm  -   -   -  27 36 mph 1017.2mb 57f 58f
10:10pm  -   -   -  27 38 mph 1017.1mb 57f 58f
10:00pm  -   -   -  29 36 mph 1017.1mb - 58f
9:50pm 14ft 16s 9s 27 34 mph 1017mb 57f 58f
9:40pm 14ft  -  9s 27 34 mph 1016.9mb 57f 58f
9:30pm  -   -   -  27 34 mph 1016.8mb 57f 58f
9:20pm  -   -   -  27 34 mph 1016.9mb 57f 58f
9:10pm  -   -   -  27 34 mph 1017.1mb 57f 58f
9:00pm  -   -   -  27 36 mph 1017.2mb 57f 58f
8:50pm 14.5ft 16s 9s 29 34 mph 1017.1mb 57f 58f
8:40pm  -   -   -  29 36 mph 1017mb 57f 59f
8:30pm  -   -   -  29 36 mph 1016.9mb 57f 59f
8:20pm  -   -   -  29 38 mph 1016.7mb 57f 59f
8:10pm  -   -   -  29 36 mph 1016.8mb 58f 59f
8:00pm  -   -   -  27 38 mph 1016.7mb 58f 59f
7:50pm 14ft 16s 9s 27 36 mph 1016.6mb 58f 59f
7:40pm 14ft  -  9s 29 36 mph 1016.6mb 58f 59f
7:30pm  -   -   -  31 38 mph 1016.4mb 58f 59f
7:20pm  -   -   -  29 36 mph 1016.4mb 58f 59f
7:10pm  -   -   -  31 38 mph 1016.2mb 58f 59f
7:00pm  -   -   -  29 38 mph 1016.3mb 58f 59f
6:50pm 13.5ft 17s 9s 29 38 mph 1016mb 58f 59f
6:40pm  -   -   -  29 36 mph 1016mb 58f 59f
6:30pm  -   -   -  29 36 mph 1015.9mb 58f 59f
6:20pm  -   -   -  29 36 mph 1015.7mb 58f 59f
6:10pm  -   -   -  29 38 mph 1015.6mb 58f 59f
6:00pm  -   -   -  29 36 mph 1015.5mb - 59f
5:50pm 13ft  -  8s 29 38 mph 1015.5mb 58f 59f
5:40pm 13ft 16s 8s  -  mph - - -
5:30pm  -   -   -  29 34 mph 1015.5mb 58f 59f
5:20pm  -   -   -  29 36 mph 1015.7mb 58f 59f
5:10pm  -   -   -  27 34 mph 1015.7mb 58f 59f
5:00pm  -   -   -  29 36 mph 1015.7mb 58f 60f
4:50pm 13ft 19s 9s 29 38 mph 1015.9mb 58f 60f
4:40pm 13ft  -  9s 29 40 mph 1015.8mb 58f 60f
4:30pm  -   -   -  29 38 mph 1015.5mb 58f 60f
4:20pm  -   -   -  31 40 mph 1015.4mb 58f 60f
4:10pm  -   -   -  29 38 mph 1015.4mb - 60f
4:00pm  -   -   -  29 34 mph 1015.5mb 58f 60f
3:50pm 14.5ft 16s 9s 27 36 mph 1015.5mb 58f 60f
3:40pm  -   -   -  29 38 mph 1015.2mb 58f 60f
3:30pm  -   -   -  29 36 mph 1015.3mb 58f 60f
3:20pm  -   -   -  29 38 mph 1015.3mb 58f 60f
3:10pm  -   -   -  29 36 mph 1015.3mb 58f 60f
3:00pm  -   -   -  29 36 mph 1015.1mb 58f 60f
2:50pm 12.5ft 17s 9s 27 36 mph 1015.1mb 59f 60f
2:40pm  -   -   -  27 38 mph 1015.1mb - 60f
2:30pm  -   -   -  27 34 mph 1015.1mb 59f 60f
2:20pm  -   -   -  27 34 mph 1015mb 58f 60f
2:10pm  -   -   -  27 34 mph 1015.2mb 58f 60f
2:00pm  -   -   -  27 36 mph 1015.3mb 59f 60f
1:50pm 13ft 17s 9s 29 38 mph 1015.4mb 59f 60f
1:40pm 13ft  -  9s 29 38 mph 1015.4mb 59f 60f
1:30pm  -   -   -  29 34 mph 1015.7mb - 60f
1:20pm  -   -   -  29 36 mph 1015.6mb 59f 60f
1:10pm  -   -   -  27 34 mph 1015.7mb 59f 60f
1:00pm  -   -   -  27 36 mph 1015.6mb 59f 60f
12:50pm 14ft 17s 10s 27 34 mph 1015.7mb 59f 60f
12:40pm 14ft  -  10s 29 36 mph 1015.8mb 59f 60f
12:30pm  -   -   -  29 36 mph 1015.8mb 59f 60f
12:20pm  -   -   -  29 36 mph 1016mb 59f 60f
12:10pm  -   -   -  29 36 mph 1015.9mb 59f 59f
12:00pm  -   -   -  27 36 mph 1015.9mb 59f 59f
11:50am 12ft 17s 10s 27 34 mph 1015.8mb 59f 59f
11:40am 12ft  -  10s 27 34 mph 1015.9mb 59f 59f
11:30am  -   -   -  25 31 mph 1016mb 59f 59f
11:20am  -   -   -  22 29 mph 1015.7mb 59f 59f
11:10am  -   -   -  25 29 mph 1016mb 59f 59f
11:00am  -   -   -  27 34 mph 1016.1mb 59f 59f
10:50am 11.5ft 17s 10s 25 34 mph 1016.2mb 59f 59f
10:40am 11.5ft  -  10s 25 31 mph 1016.3mb 59f 59f
10:30am  -   -   -  25 29 mph 1016.4mb 59f 59f
10:20am  -   -   -  25 31 mph 1016.4mb 59f 59f
10:10am  -   -   -  27 34 mph 1016.3mb 59f 59f
10:00am  -   -   -  25 31 mph 1016.2mb - 59f
9:50am 9ft 19s 9s 27 34 mph 1016mb 59f 59f
9:40am  -   -   -  27 31 mph 1016mb 59f 59f
9:30am  -   -   -  25 29 mph 1015.9mb 59f 60f
9:20am  -   -   -  22 29 mph 1015.9mb 59f 60f
9:10am  -   -   -  22 29 mph 1015.8mb 59f 60f
9:00am  -   -   -  22 27 mph 1016mb 59f 59f
8:50am 6.5ft 19s 9s 20 27 mph 1015.8mb 59f 59f
7:50am 5.5ft 19s 9s 9 13 mph 1014.6mb 59f 59f
7:20am  -   -   -  9 11 mph 1015mb 59f 59f
7:10am  -   -   -  7 9 mph 1015mb 59f 59f
7:00am  -   -   -  9 11 mph 1015.1mb 59f 59f
6:50am 4.5ft 19s 8s 9 11 mph 1015.2mb 59f 59f
6:40am  -   -   -  9 11 mph 1015.2mb 59f 59f
6:30am  -   -   -  9 11 mph 1015.2mb 59f 60f
6:20am  -   -   -  9 11 mph 1015.2mb 59f 60f
6:10am  -   -   -  9 11 mph 1015.1mb 59f 60f
6:00am  -   -   -  11 13 mph 1015.2mb - 60f
5:50am 4ft 19s 7s 11 13 mph 1015.1mb 59f 60f
5:40am 4ft  -  7s 11 13 mph 1015mb 59f 60f
5:30am  -   -   -  11 13 mph 1014.9mb 59f 60f
5:20am  -   -   -  11 13 mph 1014.8mb 59f 60f
5:10am  -   -   -  11 13 mph 1014.8mb 59f 60f
5:00am  -   -   -  11 13 mph 1014.7mb 59f 60f
4:50am 3.5ft 15s 7s 11 13 mph 1014.5mb 59f 60f
4:40am 3.5ft  -  7s 11 13 mph 1014.5mb 59f 60f
4:30am  -   -   -  9 11 mph 1014.4mb 59f 60f
4:20am  -   -   -  9 11 mph 1014.5mb 59f 60f
4:10am  -   -   -  9 11 mph 1014.4mb 59f 60f
4:00am  -   -   -  9 11 mph 1014.4mb 59f 59f
3:50am 3.5ft 15s 6s 9 11 mph 1014.5mb 59f 59f
3:40am 3.5ft  -  6s 9 13 mph 1014.6mb 59f 59f
3:30am  -   -   -  11 13 mph 1014.7mb - 59f
3:20am  -   -   -  11 13 mph 1014.5mb 59f 59f
3:10am  -   -   -  9 13 mph 1014.6mb 59f 59f
3:00am  -   -   -  11 13 mph 1014.4mb 59f 59f
2:50am 4ft 11s 6s 11 13 mph 1014.5mb 59f 59f
2:40am  -   -   -  11 13 mph 1014.4mb 59f 59f
2:30am  -   -   -  11 13 mph 1014.3mb 59f 59f
2:20am  -   -   -  11 16 mph 1014.4mb 59f 59f
2:10am  -   -   -  13 16 mph 1014.4mb 59f 59f
2:00am  -   -   -  13 16 mph 1014.4mb 59f 59f
1:50am 4ft 14s 6s 13 16 mph 1014.6mb 59f 60f
1:40am  -   -   -  13 18 mph 1014.5mb 59f 60f
1:30am  -   -   -  13 18 mph 1014.6mb 59f 60f
1:20am  -   -   -  13 18 mph 1014.6mb 59f 60f
1:10am  -   -   -  16 20 mph 1014.7mb 59f 60f
1:00am  -   -   -  18 20 mph 1014.7mb 59f 60f
12:50am 4.5ft 11s 6s 18 20 mph 1014.5mb 59f 60f
12:40am 4.5ft  -  6s 18 22 mph 1014.3mb 59f 59f
12:30am  -   -   -  16 20 mph 1014.1mb 59f 59f
12:20am  -   -   -  18 22 mph 1014.6mb 59f 59f
12:10am  -   -   -  18 20 mph 1014.6mb 59f 59f
12:00am  -   -   -  18 20 mph 1014.9mb 59f 59f
Thu 10/19 11:50pm 4.5ft 14s 6s 18 20 mph 1014.8mb 60f 59f
11:40pm 4.5ft  -  6s 16 20 mph 1014.9mb 60f 59f
11:30pm  -   -   -  13 18 mph 1014.9mb 60f 59f
11:20pm  -   -   -  16 20 mph 1014.8mb 60f 59f
11:10pm  -   -   -  16 20 mph 1014.7mb 60f 59f
11:00pm  -   -   -  16 20 mph 1015mb 60f 59f
10:50pm 4.5ft 10s 6s 16 20 mph 1015mb 60f 59f
10:40pm  -   -   -  16 18 mph 1015mb 60f 59f
10:30pm  -   -   -  16 20 mph 1014.9mb 60f 59f
10:20pm  -   -   -  18 22 mph 1014.6mb 60f 59f
10:10pm  -   -   -  20 27 mph 1014.6mb 60f 59f
10:00pm  -   -   -  20 25 mph 1014.5mb 60f 59f
9:50pm 5ft 14s 6s 20 25 mph 1014.3mb 60f 59f
9:40pm  -   -   -  20 22 mph 1014.2mb 60f 59f
9:30pm  -   -   -  20 25 mph 1014mb - 59f
9:20pm  -   -   -  20 25 mph 1014mb 60f 59f
9:10pm  -   -   -  20 25 mph 1014mb 59f 59f
9:00pm  -   -   -  20 25 mph 1013.5mb 59f 59f
8:50pm 5.5ft 15s 6s 20 25 mph 1013.5mb 59f 59f
8:40pm 5.5ft  -  6s 20 25 mph 1013.3mb 59f 59f
8:30pm  -   -   -  20 25 mph 1013.2mb 59f 59f
8:20pm  -   -   -  20 27 mph 1013.2mb 59f 59f
8:10pm  -   -   -  22 27 mph 1013.1mb 59f 59f
8:00pm  -   -   -  22 27 mph 1013.1mb 59f 59f
7:50pm 5.5ft 11s 6s 22 27 mph 1013.1mb 59f 59f
7:40pm  -   -   -  22 27 mph 1013.1mb 59f 59f
7:30pm  -   -   -  22 27 mph 1013.1mb 59f 59f
7:20pm  -   -   -  22 27 mph 1013.1mb 59f 59f
7:10pm  -   -   -  22 27 mph 1012.9mb 59f 59f
7:00pm  -   -   -  22 27 mph 1012.8mb 59f 59f
6:50pm 5ft 11s 5s 20 27 mph 1012.7mb 59f 59f
6:40pm  -   -   -  20 27 mph 1012.6mb 59f 59f
6:30pm  -   -   -  22 27 mph 1012.6mb 59f 59f
6:20pm  -   -   -  22 27 mph 1012.5mb 59f 59f
6:10pm  -   -   -  22 29 mph 1012.5mb 59f 59f
6:00pm  -   -   -  22 29 mph 1012.5mb 59f 59f
5:50pm 6ft 11s 5s 25 29 mph 1012.7mb 59f 59f
5:40pm 6ft  -  5s 25 29 mph 1012.7mb 59f 59f
5:30pm  -   -   -  25 29 mph 1012.7mb 59f 59f
5:20pm  -   -   -  25 31 mph 1012.7mb 59f 59f
5:10pm  -   -   -  22 29 mph 1012.7mb 59f 59f
5:00pm  -   -   -  22 29 mph 1012.9mb 59f 59f
4:50pm 5.5ft 10s 6s 22 27 mph 1013mb 59f 59f
4:40pm 5.5ft  -  6s 22 27 mph 1013.1mb 59f 59f
4:30pm  -   -   -  22 29 mph 1012.9mb 59f 59f
4:20pm  -   -   -  22 29 mph 1013.2mb 59f 59f
4:10pm  -   -   -  25 31 mph 1013.2mb 59f 59f
4:00pm  -   -   -  27 36 mph 1013.3mb 59f 59f
3:50pm 6ft 11s 5s 27 34 mph 1013.5mb 59f 59f
3:40pm 6ft  -  5s 27 36 mph 1013.5mb 59f 59f
3:30pm  -   -   -  27 36 mph 1013.2mb - 59f
3:20pm  -   -   -  29 36 mph 1013.1mb 59f 59f
3:10pm  -   -   -  27 34 mph 1013.1mb 58f 59f
3:00pm  -   -   -  25 31 mph 1013mb 58f 59f
2:50pm 5.5ft 10s 5s 25 29 mph 1013mb 59f 59f
2:40pm 5.5ft  -  5s 25 29 mph 1013.1mb 58f 59f
2:30pm  -   -   -  25 31 mph 1013.1mb 58f 58f
2:20pm  -   -   -  22 31 mph 1013.1mb 58f 58f
2:10pm  -   -   -  25 31 mph 1013.3mb 58f 58f
2:00pm  -   -   -  25 31 mph 1013.2mb 58f 58f
1:50pm 6ft 11s 6s 22 31 mph 1013.2mb 58f 58f
1:40pm  -   -   -  27 31 mph 1013.3mb 58f 58f
1:30pm  -   -   -  27 31 mph 1013.3mb 58f 58f
1:20pm  -   -   -  27 34 mph 1013.3mb 58f 58f
1:10pm  -   -   -  27 31 mph 1013.4mb - 58f
1:00pm  -   -   -  25 31 mph 1013.6mb 58f 58f
12:50pm 6ft 11s 6s 27 31 mph 1013.5mb 58f 58f
12:40pm  -   -   -  27 34 mph 1013.3mb 58f 58f
12:30pm  -   -   -  25 31 mph 1013.3mb 58f 58f
12:20pm  -   -   -  25 31 mph 1013.5mb 58f 58f
12:10pm  -   -   -  25 29 mph 1013.6mb 58f 58f
12:00pm  -   -   -  25 31 mph 1013.8mb 58f 58f
11:50am 6ft 15s 6s 27 31 mph 1013.8mb 58f 58f
11:40am 6ft  -  6s 27 31 mph 1014mb 58f 58f
11:30am  -   -   -  27 34 mph 1013.8mb 58f 58f
11:20am  -   -   -  25 31 mph 1013.9mb 58f 58f
11:10am  -   -   -  22 29 mph 1013.9mb 58f 58f
11:00am  -   -   -  25 29 mph 1014mb 58f 57f
10:50am 7ft 6s 6s 22 29 mph 1014mb 58f 57f
10:40am  -   -   -  25 29 mph 1014mb 58f 57f
10:30am  -   -   -  25 31 mph 1014.1mb 58f 57f
10:20am  -   -   -  27 34 mph 1014mb 58f 57f
10:10am  -   -   -  25 31 mph 1014mb 58f 57f
10:00am  -   -   -  27 31 mph 1014.1mb 58f 57f
9:50am 6.5ft 11s 6s 27 34 mph 1014mb 58f 57f
9:40am  -   -   -  25 34 mph 1013.9mb 58f 57f
9:30am  -   -   -  27 31 mph 1013.8mb 59f 57f
9:20am  -   -   -  25 31 mph 1013.9mb 59f 57f
9:10am  -   -   -  25 31 mph 1013.9mb 58f 57f
9:00am  -   -   -  27 34 mph 1013.9mb 59f 57f
8:50am 7ft 11s 6s 27 34 mph 1013.7mb 59f 57f
8:40am 7ft  -  6s 27 34 mph 1013.7mb 59f 57f
8:30am  -   -   -  27 34 mph 1013.7mb 59f 56f
8:20am  -   -   -  27 34 mph 1013.5mb 59f 57f
8:10am  -   -   -  27 34 mph 1013.6mb 59f 57f
8:00am  -   -   -  25 31 mph 1013.1mb 59f 56f
7:50am 7.5ft 7s 6s 27 31 mph 1012.9mb 59f 56f
7:40am 7.5ft  -  6s 27 34 mph 1013.1mb 59f 56f
7:30am  -   -   -  27 36 mph 1012.9mb 59f 56f
7:20am  -   -   -  27 31 mph 1012.7mb 59f 56f
7:10am  -   -   -  27 34 mph 1012.7mb 59f 56f
7:00am  -   -   -  27 34 mph 1012.9mb 59f 56f
6:50am 7.5ft 11s 6s 27 34 mph 1012.8mb 59f 56f
6:40am  -   -   -  25 31 mph 1012.9mb 59f 56f
6:30am  -   -   -  27 31 mph 1013mb 59f 56f
6:20am  -   -   -  25 31 mph 1012.9mb 59f 56f
6:10am  -   -   -  25 29 mph 1012.7mb 59f 56f
6:00am  -   -   -  25 34 mph 1012.5mb 59f 56f
5:50am 8ft 11s 6s 25 31 mph 1012.5mb 59f 56f
5:40am  -   -   -  25 31 mph 1012.6mb 59f 56f
5:30am  -   -   -  25 31 mph 1012.3mb 59f 56f
5:20am  -   -   -  27 31 mph 1011.9mb 59f 56f
5:10am  -   -   -  27 31 mph 1012.4mb 59f 56f
5:00am  -   -   -  27 34 mph 1012.4mb 59f 56f
4:50am 7ft 11s 6s 27 31 mph 1012.6mb 59f 56f
4:40am 7ft  -  6s 27 34 mph 1012.6mb 59f 56f
4:30am  -   -   -  27 34 mph 1012.6mb 59f 56f
4:20am  -   -   -  27 34 mph 1012.6mb 59f 56f
4:10am  -   -   -  27 36 mph 1012.8mb 59f 56f
4:00am  -   -   -  27 36 mph 1012.9mb 59f 56f
3:50am 7ft 12s 6s 27 34 mph 1013mb 59f 56f
3:40am 7ft  -  6s 29 36 mph 1013.2mb 59f 56f
3:30am  -   -   -  29 34 mph 1013.4mb 59f 56f
3:20am  -   -   -  29 38 mph 1013.5mb 59f 57f
3:10am  -   -   -  27 36 mph 1013.2mb 59f 57f
3:00am  -   -   -  27 36 mph 1013mb 59f 57f
2:50am 7ft 12s 6s 27 36 mph 1013.1mb 59f 57f
2:40am  -   -   -  29 36 mph 1013.1mb 59f 57f
2:30am  -   -   -  29 38 mph 1013mb 59f 57f
2:20am  -   -   -  27 34 mph 1013.1mb 58f 57f
2:10am  -   -   -  29 36 mph 1013.2mb 58f 57f
2:00am  -   -   -  27 34 mph 1013.3mb - 57f
1:50am 7.5ft 7s 6s 27 36 mph 1013.4mb 58f 57f
1:40am 7.5ft  -  6s 27 34 mph 1013.5mb 58f 57f
1:30am  -   -   -  25 31 mph 1013.7mb 58f 57f
1:20am  -   -   -  25 29 mph 1013.7mb 58f 57f
1:10am  -   -   -  25 31 mph 1013.7mb 58f 57f
1:00am  -   -   -  25 31 mph 1013.8mb 58f 57f
12:50am 7ft 13s 6s 27 34 mph 1013.8mb 58f 57f
12:40am  -   -   -  27 31 mph 1013.7mb 58f 57f
12:30am  -   -   -  25 31 mph 1013.7mb 58f 57f
12:20am  -   -   -  25 31 mph 1013.7mb 58f 57f
12:10am  -   -   -  27 34 mph 1013.8mb 58f 57f
12:00am  -   -   -  29 38 mph 1013.6mb - 57f
Wed 10/18 11:50pm 7.5ft 7s 6s 27 34 mph 1013.6mb 58f 57f
11:40pm  -   -   -  29 34 mph 1013.6mb 58f 58f
11:30pm  -   -   -  27 31 mph 1013.5mb 58f 58f
11:20pm  -   -   -  27 31 mph 1013.7mb 58f 58f
11:10pm  -   -   -  27 34 mph 1013.6mb 58f 58f
11:00pm  -   -   -  27 36 mph 1013.5mb 58f 58f
10:50pm 8ft 16s 6s 27 34 mph 1013.8mb 58f 58f
10:40pm 8ft  -  6s 27 34 mph 1013.9mb 58f 58f
10:30pm  -   -   -  27 34 mph 1014mb 58f 58f
10:20pm  -   -   -  27 34 mph 1013.9mb 58f 58f
10:10pm  -   -   -  27 34 mph 1014mb 58f 58f
10:00pm  -   -   -  27 34 mph 1014mb 58f 58f
9:50pm 7ft 7s 6s 27 34 mph 1014mb 58f 58f
9:40pm 7ft  -  6s 27 34 mph 1013.8mb 58f 58f
9:30pm  -   -   -  27 31 mph 1013.9mb 58f 58f
9:20pm  -   -   -  27 34 mph 1013.7mb 59f 58f
9:10pm  -   -   -  25 31 mph 1013.7mb 59f 58f
9:00pm  -   -   -  25 31 mph 1013.7mb 59f 58f
8:50pm 7ft 7s 6s 25 31 mph 1013.7mb 59f 58f
8:40pm 7ft  -  6s 27 31 mph 1013.7mb 59f 58f
8:30pm  -   -   -  27 34 mph 1013.5mb 59f 58f
8:20pm  -   -   -  27 34 mph 1013.4mb 59f 58f
8:10pm  -   -   -  27 31 mph 1013.2mb 59f 58f
8:00pm  -   -   -  27 31 mph 1013.3mb 59f 58f
7:50pm 7.5ft 7s 6s 25 31 mph 1013.4mb 60f 58f
7:40pm 7.5ft  -  6s 27 31 mph 1013.2mb 60f 58f
7:30pm  -   -   -  29 36 mph 1013.3mb 60f 58f
7:20pm  -   -   -  27 34 mph 1013.2mb 60f 58f
7:10pm  -   -   -  27 34 mph 1013.1mb 60f 58f
7:00pm  -   -   -  27 31 mph 1013.1mb 60f 59f
6:50pm 7ft 7s 6s 27 31 mph 1013.2mb 61f 59f
6:40pm  -   -   -  27 34 mph 1013.2mb 61f 59f
6:30pm  -   -   -  27 34 mph 1013.4mb 61f 59f
6:20pm  -   -   -  27 34 mph 1013.3mb 61f 59f
6:10pm  -   -   -  27 34 mph 1013.3mb 61f 59f
6:00pm  -   -   -  27 34 mph 1013.4mb 61f 59f
5:50pm 7ft 6s 6s 27 34 mph 1013.4mb 61f 59f
5:40pm 7ft  -  6s 29 36 mph 1013.5mb 61f 59f
5:30pm  -   -   -  29 34 mph 1013.5mb 61f 59f
5:20pm  -   -   -  29 36 mph 1013.4mb 61f 59f
5:10pm  -   -   -  29 36 mph 1013.5mb 62f 59f
5:00pm  -   -   -  29 36 mph 1013.6mb 62f 59f
4:50pm 7ft 16s 6s 29 36 mph 1013.6mb 62f 59f
4:40pm  -   -   -  27 34 mph 1013.6mb 62f 59f
4:30pm  -   -   -  27 34 mph 1013.6mb 62f 59f
4:20pm  -   -   -  29 34 mph 1013.7mb 62f 59f
4:10pm  -   -   -  27 36 mph 1013.8mb 62f 59f
4:00pm  -   -   -  29 34 mph 1013.9mb 62f 59f
3:50pm 7ft 16s 6s 29 34 mph 1014mb 62f 59f
3:40pm  -   -   -  27 36 mph 1014mb 62f 60f
3:30pm  -   -   -  31 38 mph 1014.1mb 62f 59f
3:20pm  -   -   -  29 36 mph 1013.9mb 62f 59f
3:10pm  -   -   -  29 36 mph 1013.9mb 62f 59f
3:00pm  -   -   -  29 34 mph 1014mb 62f 60f
2:50pm 7ft 16s 6s 29 34 mph 1014mb 62f 59f
2:40pm  -   -   -  29 36 mph 1014mb 62f 59f
2:30pm  -   -   -  29 36 mph 1014mb 62f 59f
2:20pm  -   -   -  29 36 mph 1014.1mb 62f 60f
2:10pm  -   -   -  29 36 mph 1014.3mb 62f 60f
2:00pm  -   -   -  27 34 mph 1014.3mb 62f 60f
1:50pm 6.5ft 6s 5s 29 36 mph 1014.3mb 62f 60f
1:40pm  -   -   -  27 34 mph 1014.5mb 63f 60f
1:30pm  -   -   -  27 34 mph 1014.8mb 62f 60f
1:20pm  -   -   -  27 31 mph 1015mb 62f 60f
1:10pm  -   -   -  27 31 mph 1015.1mb 62f 60f
1:00pm  -   -   -  27 34 mph 1015.2mb 62f 60f
12:50pm 7ft 6s 6s 27 31 mph 1015.3mb 63f 60f
12:40pm  -   -   -  27 34 mph 1015.3mb 63f 60f
12:30pm  -   -   -  27 34 mph 1015.4mb 63f 60f
12:20pm  -   -   -  27 34 mph 1015.4mb 63f 60f
12:10pm  -   -   -  27 34 mph 1015.4mb 63f 60f
12:00pm  -   -   -  27 34 mph 1015.4mb 63f 60f
11:50am 7ft 16s 6s 27 34 mph 1015.4mb 63f 60f